OpenBCM V1.13 (Linux)

Packet Radio Mailbox

DB0FHN

[JN59NK Nuernberg]

 Login: GUEST





  
LU1HVK > KEP      10.01.20 17:49l 242 Lines 12024 Bytes #999 (0) @ WW
BID : 38628_LU1HVK
Read: DJ6UX GUEST
Subj: TLE 24 10
Path: DB0FHN<DB0FFL<OE5XBL<F1OYP<ON0AR<GB7CIP<N7HPX<LU1HVK
Sent: 200110/1546Z 38628@LU1HVK.2594.CBA.ARG.SA LinBPQ6.0.19

                         _    _   _ _ _   ___     ___  __
                        | |  | | | / | | | \ \   / / |/ /
                        | |  | | | | | |_| |\ \ / /| ' /
                        | |__| |_| | |  _  | \ V / | . \
                        |_____\___/|_|_| |_|  \_/  |_|\_\

     BBS/NODO - CORDOBA (LEONES-FF87UH) - LU1HVK-4 NODO - LU1HVK-3 APRS

+----------------------------------------------------------------------------+
OSCAR 7
1  7530U 74089B   19296.91046146 -.00000025 +00000-0 +12502-3 0  9992
2  7530 101.7623 263.3417 0012450 100.7485 324.2337 12.53640432056229
OSCAR 11 (UoSAT 2)
1 14781U 84021B   19296.94436928 +.00000060 +00000-0 +13524-4 0  9993
2 14781 097.6043 315.5966 0007003 260.0396 100.0028 14.83114135896626
OSCAR 19 (LUSAT)
1 20442U 90005G   19296.89379305 -.00000009 +00000-0 +12884-4 0  9994
2 20442 098.6603 238.7418 0012526 130.8456 229.3816 14.32935673554538
EYESAT A
1 22825U 93061C   19296.90886082 +.00000010 +00000-0 +22062-4 0  9993
2 22825 098.9140 288.5119 0008310 355.9758 004.1355 14.30069197359869
ITAMSAT
1 22826U 93061D   19296.95081968 +.00000010 +00000-0 +21706-4 0  9993
2 22826 098.9080 288.5305 0008619 343.8474 016.2431 14.30403339360099
RADIO ROSTO
1 23439U 94085A   19296.96423478 -.00000019 +00000-0 +66823-3 0  9996
2 23439 064.8151 270.3055 0145251 088.3703 273.3852 11.27568536022241
JAS 2
1 24278U 96046B   19296.88114538 -.00000023 +00000-0 +15417-4 0  9991
2 24278 098.5571 073.1494 0349294 270.2846 085.8282 13.53094302144752
TECHSAT 1B
1 25397U 98043D   19296.89801228 -.00000007 +00000-0 +16080-4 0  9992
2 25397 098.6992 235.5534 0002095 055.2085 304.9290 14.23672765105757
ISS (ZARYA)
1 25544U 98067A   19297.01811434  .00000142  00000-0  10471-4 0  9994
2 25544  51.6443  82.4593 0006786 180.1794 285.6866 15.50212823195244
PCSAT
1 26931U 01043C   19296.74419999 -.00000052 +00000-0 +11765-4 0  9990
2 26931 067.0531 035.8198 0007477 267.4821 092.5425 14.30555963943075
SAUDISAT 1C
1 27607U 02058C   19296.62330684 -.00000004 +00000-0 +20228-4 0  9999
2 27607 064.5568 021.5158 0074436 231.8162 127.6221 14.75581418905635
CUTE-1
1 27844U 03031E   19296.92303228 +.00000064 +00000-0 +48645-4 0  9999
2 27844 098.6853 303.2398 0010327 028.6663 331.5080 14.22200929846333
CUBESAT XI 4
1 27848U 03031J   19296.95149004 +.00000051 +00000-0 +43014-4 0  9997
2 27848 098.6928 303.7935 0010413 039.7973 320.3967 14.21793138846197
MOZHAYETS 4
1 27939U 03042A   19296.93100508 +.00000021 +00000-0 +12469-4 0  9991
2 27939 098.0589 070.4038 0013435 029.9522 330.2453 14.66810687859197
CUBESAT XI 5
1 28895U 05043F   19296.93457248 +.00000131 +00000-0 +34007-4 0  9996
2 28895 097.9778 075.4434 0015748 313.0663 046.9221 14.63702239745866
CUTE-1.7+APD II
1 32785U 08021C   19296.81901303 +.00000190 +00000-0 +26064-4 0  9990
2 32785 097.5569 290.5838 0012560 195.0906 164.9938 14.88360765622522
DELFI C3
1 32789U 08021G   19296.89945270 +.00000940 +00000-0 +66359-4 0  9997
2 32789 097.4509 342.6486 0013328 055.2350 305.0131 15.07190439626023
SEEDS
1 32791U 08021J   19296.82418509 +.00000400 +00000-0 +45849-4 0  9995
2 32791 097.5320 296.6741 0013543 168.1364 192.0177 14.90891963622973
YUBELEINY
1 32953U 08025A   19296.80905987 +.00000020 +00000-0 +75656-4 0  9995
2 32953 082.5017 065.6998 0019151 210.0784 149.9197 12.43091872518101
PRISM (HITOMI)
1 33493U 09002B   19296.75268109  .00001067  00000-0  98630-4 0  9992
2 33493  98.1234 222.5308 0016424 119.0464 241.2404 14.96772528584156
KKS-1 (KISEKI)
1 33499U 09002H   19296.89812988 +.00000090 +00000-0 +21295-4 0  9991
2 33499 098.3398 139.6144 0009576 154.6094 205.5586 14.75471597577554
SWISSCUBE
1 35932U 09051B   19296.43051331 +.00000143 +00000-0 +43235-4 0  9993
2 35932 098.5991 106.2118 0008419 131.8624 228.3292 14.56320738535180
BEESAT
1 35933U 09051C   19296.63201900 +.00000114 +00000-0 +36814-4 0  9998
2 35933 098.6008 108.2298 0006472 141.4024 218.7637 14.56405347535287
ITUPSAT 1
1 35935U 09051E   19296.90056515 +.00000082 +00000-0 +29926-4 0  9990
2 35935 098.6118 108.7346 0008796 140.7123 219.4713 14.55560357535110
XIWANG-1 (HOPE-1)
1 36122U 09072B   19296.73948992 -.00000049 +00000-0 -18500-4 0  9993
2 36122 100.0788 293.1717 0007968 055.2446 304.9417 13.16351470473593
TISAT 1
1 36799U 10035E   19296.44140354  .00000408  00000-0  47192-4 0  9994
2 36799  98.1717  92.9321 0012944  35.7194 324.4886 14.91182242503652
JUGNU
1 37839U 11058B   19296.32786212 +.00000328 +00000-0 +33011-4 0  9998
2 37839 019.9618 286.8370 0018669 283.3795 209.1153 14.12662238415070
SRMSAT
1 37841U 11058D   19296.56224116 +.00000295 +00000-0 +17023-4 0  9995
2 37841 019.9733 344.8137 0011897 149.4927 000.2963 14.10641391414536
M-CUBED/EXP-1 PRIME
1 37855U 11061F   19296.86666605 +.00001558 +00000-0 +84930-4 0  9994
2 37855 101.7183 257.7638 0172991 059.6989 302.1212 15.05670132435445
HORYU 2
1 38340U 12025D   19296.84233156 +.00000156 +00000-0 +30756-4 0  9994
2 38340 098.3162 339.1638 0012742 080.8920 279.3729 14.75762990389509
STRAND 1
1 39090U 13009E   19296.61035749 +.00000025 +00000-0 +23807-4 0  9997
2 39090 098.4754 140.3725 0008055 272.9741 087.0523 14.35101355348572
SOMP
1 39134U 13015E   19296.51745475 +.00001062 +00000-0 +57146-4 0  9991
2 39134 064.8629 329.4739 0037228 282.9029 076.7941 15.20415396359498
BEESAT 3
1 39135U 13015F   19296.86382485 +.00000810 +00000-0 +49406-4 0  9998
2 39135 064.8686 348.4562 0037672 289.4583 070.2474 15.17669917359156
BEESAT 2
1 39136U 13015G   19296.55381861  .00000748  00000-0  47276-4 0  9995
2 39136  64.8695 353.6464 0029163 294.6389  65.1700 15.17085774359411
CUBEBUG 1
1 39153U 13018D   19296.81719716  .00000194  00000-0  32149-4 0  9998
2 39153  97.9814  34.2485 0017824 143.2865 216.9572 14.80611293350621
ZACUBE
1 39417U 13066B   19296.91516341 +.00000209 +00000-0 +32607-4 0  9990
2 39417 097.5625 303.2665 0058360 338.2600 021.6137 14.81165095319877
TRITON 1
1 39427U 13066M   19296.86048083 +.00000197 +00000-0 +39087-4 0  9993
2 39427 097.6927 266.4866 0115013 117.9729 243.3173 14.67893304316808
GOMX 1
1 39430U 13066Q   19296.88549078 +.00000129 +00000-0 +32525-4 0  9994
2 39430 097.7605 245.1504 0150050 212.9136 146.2660 14.59298621315158
HUMSAT D
1 39433U 13066T   19296.68379451 +.00000419 +00000-0 +46126-4 0  9995
2 39433 097.5400 338.9110 0029566 235.1960 124.6477 14.92277659320837
CUBEBUG 2
1 39440U 13066AA  19296.87208620 +.00000244 +00000-0 +40689-4 0  9997
2 39440 097.6108 287.8527 0081068 032.7184 327.9011 14.75902253317530
FUNCUBE 1
1 39444U 13066AE  19296.91262422 +.00000263 +00000-0 +38711-4 0  9990
2 39444 097.5595 305.3286 0057297 331.5190 028.2897 14.81994417318180
UWE-3
1 39446U 13066AG  19296.59064433 +.00000223 +00000-0 +36166-4 0  9996
2 39446 097.5860 294.7318 0070189 007.2117 353.0087 14.78437335317428
SPROUT
1 39770U 14029E   19296.84448876 +.00000490 +00000-0 +60212-4 0  9996
2 39770 097.8898 039.3550 0009792 033.3450 326.8378 14.87466819293732
UNISAT 6
1 40012U 14033C   19296.75462226 +.00000184 +00000-0 +34705-4 0  9995
2 40012 097.7382 157.7744 0059448 048.7125 311.9181 14.74021282287403
DUCHIFAT 1
1 40021U 14033M   19296.74673005  .00000521  00000-0  58945-4 0  9990
2 40021  97.9256 221.7671 0012968 357.7783   2.3375 14.90711919290473
QB50P1
1 40025U 14033R   19296.84602551 +.00000276 +00000-0 +35347-4 0  9991
2 40025 097.9047 216.3112 0012699 007.9380 352.2035 14.89003459289731
CHUBUSAT 1
1 40300U 14070C   19296.80880093  .00000576  00000-0  27976-4 0  9995
2 40300  97.3151   7.7102 0019630 332.8000 166.6074 15.22213845275352
NUDT-PHONESAT
1 40900U 15049B   19296.77940823  .00001676  00000-0  73769-4 0  9995
2 40900  97.4378 304.8939 0014334  98.3325 347.5652 15.23165929227000
ZDPS 2A
1 40901U 15049C   19296.91527360 +.00000575 +00000-0 +31644-4 0  9992
2 40901 097.4628 300.9233 0014781 117.1666 330.3965 15.17883786226532
ZDPS 2B
1 40902U 15049D   19296.94832409 +.00000866 +00000-0 +46130-4 0  9998
2 40902 097.4577 298.3492 0014905 114.5145 301.8974 15.17754230226516
XW-2A
1 40903U 15049E   19296.77385005  .00001595  00000-0  39035-4 0  9991
2 40903  97.3239 340.1819 0014873  48.7492  43.5000 15.42217357229837
KAITUO 1A
1 40904U 15049F   19296.90787263 +.00000164 +00000-0 +12149-4 0  9997
2 40904 097.4716 296.7726 0015785 123.3319 324.9413 15.15468501226260
OBJECT G
1 40905U 15049G   19296.94180559 +.00000219 +00000-0 +15455-4 0  9991
2 40905 097.4768 294.2256 0016895 118.9091 301.7834 15.14367202226130
XW-2C
1 40906U 15049H   19296.81454809  .00000448  00000-0  26855-4 0  9990
2 40906  97.4724 296.8219 0016155 115.0297 323.8499 15.15789196226251
XW-2D
1 40907U 15049J   19296.90977723 +.00000441 +00000-0 +26375-4 0  9996
2 40907 097.4705 296.5971 0015598 112.1005 335.9445 15.15987453226282
LILACSAT 2
1 40908U 15049K   19296.96116197 -.00000011 +00000-0 +29886-5 0  9998
2 40908 097.4840 295.3296 0017157 119.5546 297.3606 15.13869054226064
XW-2F
1 40910U 15049M   19296.82200409  .00000840  00000-0  45185-4 0  9994
2 40910  97.4659 298.7064 0016351 105.2529  17.9134 15.17480133226291
XW-2B
1 40911U 15049N   19296.81458351 +.00000539 +00000-0 +31507-4 0  9993
2 40911 097.4722 297.1741 0015395 112.7427 325.6808 15.15916260226161
KAITUO 1B
1 40912U 15049P   19296.91587003 +.00000852 +00000-0 +42865-4 0  9999
2 40912 097.4513 302.6409 0016501 088.3820 359.1938 15.19814445226632
TIANWANG 1C (TW-1C)
1 40926U 15051B   19296.86013446  .00012005  00000-0  16030-3 0  9993
2 40926  97.1213 342.9613 0005588 254.1201 229.1226 15.58201909229945
TIANWANG 1B (TW-1B)
1 40927U 15051C   19296.95310277 +.00010963 +00000-0 +15636-3 0  9998
2 40927 097.1243 342.1630 0005632 270.0669 211.7274 15.56449383229796
